[[{"header":{"parameterUnit":"m.s-1","parameterCategory":1,"la1":30.2991,"la2":30.254,"lo1":-89.0895,"lo2":-89.0444,"dy":0.0017,"dx":0.0017,"nx":28,"ny":28,"refTime":"2025-09-05T21:00:00:Z","depth":0,"parameterNumber":2,"parameterNumberName":"U-component_of_WINDS"},"data":[0,0,0,0,0,0,0,0,0,0,0,0,0,0,0,0,0,0,0,0,0,0,0,0,0,0,0,0,0,0,0,0,0,0,0,0,0,0,0,0,0,0,0,0,0,0,0,0,0,0,0,0,0,0,0,0,0,0,-0.752,-0.752,0,-0.7542,-0.7542,-0.7543,-0.7521,-0.752,-0.7519,-0.7518,-0.7543,-0.7544,-0.7545,0,0,0,0,0,0,0,0,0,0,0,0,0,-0.746,-0.7461,-0.752,-0.752,-0.752,-0.7542,-0.7542,-0.7543,-0.7521,-0.752,-0.7519,-0.7518,-0.7542,-0.7544,-0.7546,0,0,0,0,0,0,0,0,0,0,0,0,0,-0.7484,-0.7461,-0.752,-0.7512,-0.7511,-0.7542,-0.7542,-0.7543,-0.7521,-0.752,-0.7519,-0.7517,-0.7542,-0.7544,-0.7546,-0.7585,0,0,-0.7552,-0.7553,0,0,0,0,0,0,0,0,-0.7483,-0.7487,-0.7513,-0.7513,-0.7512,-0.7527,-0.753,-0.7557,-0.7522,-0.7518,-0.7518,-0.7517,-0.7539,-0.7541,-0.7548,-0.7586,-0.7587,-0.7553,-0.7554,-0.7555,-0.7556,0,0,0,0,0,0,0,-0.7481,-0.7486,-0.7528,-0.7513,-0.7513,-0.7508,-0.751,-0.7535,-0.7535,-0.7518,-0.7516,-0.7519,-0.7538,-0.7546,-0.7548,-0.7588,-0.7553,-0.7555,-0.7556,-0.7557,-0.7661,-0.7662,0,0,0,0,0,0,-0.748,-0.7484,-0.7528,-0.7529,-0.7494,-0.751,-0.7512,-0.7524,-0.7535,-0.7535,-0.752,-0.7518,-0.7543,-0.7546,-0.7549,-0.7597,-0.7555,-0.7557,-0.7558,-0.766,-0.7661,-0.7663,0,0,0,0,0,0,-0.7479,-0.7484,-0.7527,-0.7506,-0.7511,-0.7513,-0.7525,-0.7525,-0.7533,-0.7537,-0.7537,-0.7528,-0.7542,-0.7546,-0.7577,-0.7598,-0.7558,-0.756,-0.7658,-0.766,-0.7662,-0.7693,0,0,0,0,0,0,-0.7477,-0.7484,-0.7499,-0.7507,-0.7513,-0.7554,-0.7527,-0.7526,-0.7536,-0.7534,-0.7544,-0.7545,-0.7541,-0.7574,-0.7579,-0.76,-0.7562,-0.7656,-0.7659,-0.7661,-0.769,-0.7696,-0.7701,0,0,0,0,0,-0.7475,-0.7506,-0.7499,-0.7505,-0.7531,-0.7555,-0.7558,-0.7553,-0.7538,-0.7553,-0.7556,-0.7544,-0.7594,-0.7577,-0.7583,-0.7605,-0.7655,-0.7658,-0.7661,-0.7687,-0.7695,-0.7701,0,0,0,0,0,0,-0.7501,-0.7507,-0.75,-0.7534,-0.7544,-0.7551,-0.757,-0.7561,-0.7576,-0.7573,-0.7567,-0.7569,-0.7602,-0.7606,-0.7586,-0.7644,-0.7622,-0.7627,-0.764,-0.7647,-0.7652,-0.7651,-0.7563,0,0,0,0,0,-0.751,-0.7529,-0.7534,-0.7564,-0.7569,-0.7569,-0.7579,-0.7574,-0.7585,-0.7589,-0.7594,-0.7604,-0.7623,-0.7635,-0.7652,-0.769,-0.7693,-0.7708,-0.7714,-0.7718,-0.7723,-0.7744,-0.7752,-0.7674,-0.7674,-0.7674,0,0,-0.753,-0.7536,-0.7548,-0.7569,-0.7576,-0.7596,-0.7572,-0.7594,-0.7609,-0.7592,-0.7622,-0.7626,-0.7637,-0.7672,-0.7688,-0.7677,-0.7745,-0.7722,-0.7726,-0.7728,-0.7748,-0.7756,-0.7762,-0.7676,-0.7676,-0.7675,0,0,-0.7577,-0.7583,-0.7609,-0.7617,-0.7628,-0.7628,-0.7634,-0.7643,-0.7645,-0.7674,-0.7662,-0.768,-0.7711,-0.772,-0.7729,-0.778,-0.7771,-0.7786,-0.7815,-0.7836,-0.7842,-0.7848,-0.7867,-0.7874,-0.779,-0.779,-0.779,0,-0.7601,-0.763,-0.7624,-0.7647,-0.7657,-0.7642,-0.7669,-0.7677,-0.7693,-0.7701,-0.7688,-0.7728,-0.7735,-0.7772,-0.7785,-0.7792,-0.78,-0.7785,-0.7842,-0.7847,-0.7852,-0.787,-0.7878,-0.7792,-0.7792,-0.7792,-0.7792,0,-0.7659,-0.768,-0.77,-0.7716,-0.7728,-0.7753,-0.7751,-0.7764,-0.7759,-0.776,-0.779,-0.7798,-0.7817,-0.7825,-0.782,-0.7862,-0.7855,-0.7842,-0.782,-0.7861,-0.7879,-0.7886,-0.7795,-0.7794,-0.7794,-0.7793,0,0,-0.7723,-0.7736,-0.7743,-0.7751,-0.7762,-0.7778,-0.7803,-0.7821,-0.7833,-0.7844,-0.7866,-0.7893,-0.7881,-0.7891,-0.7887,-0.7906,-0.7947,-0.7891,-0.7891,-0.7902,-0.7996,-0.8006,-0.8014,-0.7941,-0.7942,-0.7943,-0.7995,0,-0.7771,-0.7814,-0.7809,-0.785,-0.7869,-0.7856,-0.7877,-0.7887,-0.7889,-0.7907,-0.7909,-0.7929,-0.7911,-0.7917,-0.7935,-0.7938,-0.7966,-0.7935,-0.7961,-0.7962,-0.796,-0.8023,-0.8034,-0.8083,-0.8002,-0.8003,-0.8003,0,-0.7833,-0.7847,-0.789,-0.7899,-0.7907,-0.7927,-0.7943,-0.796,-0.7971,-0.7971,-0.7983,-0.7976,-0.8001,-0.7978,-0.8014,-0.7993,-0.8003,-0.8007,-0.8009,-0.8012,-0.7986,-0.8029,-0.8098,-0.8106,-0.8014,-0.8013,-0.8012,0,-0.7877,-0.7906,-0.7936,-0.7943,-0.7954,-0.7968,-0.7974,-0.7983,-0.7995,-0.801,-0.8017,-0.8035,-0.8045,-0.8059,-0.8057,-0.804,-0.8094,-0.8071,-0.8096,-0.8096,-0.8109,-0.8108,-0.8182,-0.8114,-0.8114,-0.8114,-0.8114,0,-0.7932,-0.7959,-0.7956,-0.7974,-0.8004,-0.7999,-0.8029,-0.8033,-0.8042,-0.8061,-0.8051,-0.8069,-0.8065,-0.8084,-0.8083,-0.8114,-0.8118,-0.8119,-0.8119,-0.8121,-0.8121,-0.8129,-0.8126,-0.8116,-0.8115,-0.8115,-0.8114,0,-0.7986,-0.7985,-0.8017,-0.8025,-0.8027,-0.8049,-0.8057,-0.8074,-0.8075,-0.81,-0.8106,-0.8108,-0.813,-0.8129,-0.8153,-0.8153,-0.8191,-0.8186,-0.8187,-0.8186,-0.8212,-0.821,-0.8294,-0.8305,-0.8229,-0.823,-0.8231,0,-0.8022,-0.8042,-0.8052,-0.8064,-0.8071,-0.809,-0.8102,-0.8098,-0.811,-0.8125,-0.8141,-0.8162,-0.8178,-0.8214,-0.8218,-0.8237,-0.8233,-0.8261,-0.8236,-0.8238,-0.8235,-0.8234,-0.8237,-0.8266,-0.8267,-0.8268,-0.8268,0,-0.8085,-0.8084,-0.8101,-0.8118,-0.8132,-0.8146,-0.8158,-0.8168,-0.8166,-0.8181,-0.8202,-0.8215,-0.824,-0.8261,-0.828,-0.8286,-0.8277,-0.8276,-0.8283,-0.8286,-0.8286,-0.8288,-0.8202,-0.8274,-0.8274,-0.8273,-0.8273,-0.8273,-0.8132,-0.815,-0.816,-0.818,-0.8188,-0.82,-0.8218,-0.8221,-0.8239,-0.8259,-0.8255,-0.828,-0.8292,-0.8315,-0.8323,-0.8343,-0.8334,-0.8344,-0.8346,-0.8349,-0.8353,-0.8282,-0.8347,-0.8346,-0.8346,-0.8346,-0.8346,0,-0.8196,-0.8202,-0.822,-0.8238,-0.8253,-0.8243,-0.8256,-0.827,-0.8292,-0.8303,-0.8319,-0.8345,-0.8366,-0.8371,-0.8391,-0.8406,-0.8403,-0.8412,-0.8411,-0.8413,-0.836,-0.8352,-0.8414,-0.8414,-0.8414,-0.8414,-0.8414,-0.8414,-0.8232,-0.8262,-0.8262,-0.8296,-0.8302,-0.8326,-0.8335,-0.8346,-0.8355,-0.8384,-0.8401,-0.8404,-0.8414,-0.8434,-0.8453,-0.8454,-0.8462,-0.8473,-0.8473,-0.8423,-0.8417,-0.841,-0.8403,-0.8475,-0.8475,-0.8525,-0.8525,-0.8526]},{"header":{"parameterUnit":"m.s-1","parameterCategory":1,"la1":30.2991,"la2":30.254,"lo1":-89.0895,"lo2":-89.0444,"dy":0.0017,"dx":0.0017,"nx":28,"ny":28,"refTime":"2025-09-05T21:00:00:Z","depth":0,"parameterNumber":3,"parameterNumberName":"V-component_of_WINDS"},"data":[0,0,0,0,0,0,0,0,0,0,0,0,0,0,0,0,0,0,0,0,0,0,0,0,0,0,0,0,0,0,0,0,0,0,0,0,0,0,0,0,0,0,0,0,0,0,0,0,0,0,0,0,0,0,0,0,0,0,3.8225,3.8225,0,3.8216,3.8216,3.8215,3.8169,3.8167,3.8166,3.8165,3.8156,3.8157,3.8158,0,0,0,0,0,0,0,0,0,0,0,0,0,3.8203,3.8204,3.8225,3.8225,3.8225,3.8216,3.8216,3.8215,3.8169,3.8167,3.8166,3.8165,3.8156,3.8157,3.8158,0,0,0,0,0,0,0,0,0,0,0,0,0,3.8205,3.8204,3.8225,3.82,3.8198,3.8216,3.8216,3.8215,3.8169,3.8167,3.8166,3.8164,3.8156,3.8157,3.8158,3.8199,0,0,3.8162,3.8162,0,0,0,0,0,0,0,0,3.8205,3.8206,3.8204,3.8202,3.8199,3.8191,3.8204,3.821,3.8169,3.818,3.8165,3.8163,3.817,3.8169,3.8171,3.8199,3.8198,3.8162,3.8163,3.8163,3.8164,0,0,0,0,0,0,0,3.8205,3.8206,3.8221,3.8204,3.8201,3.819,3.8188,3.8205,3.8184,3.8179,3.8176,3.8175,3.8168,3.817,3.8171,3.8198,3.8162,3.8163,3.8164,3.8164,3.8257,3.8259,0,0,0,0,0,0,3.8208,3.8206,3.8222,3.8221,3.8198,3.8192,3.819,3.8196,3.8184,3.8181,3.8176,3.8173,3.8169,3.817,3.817,3.8216,3.8163,3.8164,3.8165,3.8256,3.8258,3.826,0,0,0,0,0,0,3.8208,3.821,3.8222,3.8213,3.8213,3.8194,3.8201,3.8196,3.8199,3.8182,3.8178,3.8183,3.8168,3.8169,3.8192,3.8215,3.8165,3.8166,3.8254,3.8256,3.8259,3.8308,0,0,0,0,0,0,3.8207,3.821,3.8225,3.8213,3.8214,3.8244,3.8202,3.8197,3.8201,3.8196,3.8187,3.8184,3.8167,3.819,3.8193,3.8216,3.8167,3.8251,3.8255,3.8258,3.8305,3.8312,3.8319,0,0,0,0,0,3.8207,3.824,3.8226,3.8228,3.8232,3.8245,3.8245,3.8225,3.8203,3.8218,3.8207,3.8184,3.8213,3.8193,3.8196,3.8219,3.825,3.8254,3.8258,3.8301,3.8311,3.8319,0,0,0,0,0,0,3.8255,3.8238,3.8222,3.8253,3.8251,3.8237,3.8255,3.8236,3.824,3.8235,3.821,3.8208,3.8235,3.823,3.8208,3.8258,3.8227,3.8232,3.826,3.8268,3.8276,3.8275,3.8168,0,0,0,0,0,3.827,3.8281,3.8266,3.8294,3.8294,3.8275,3.828,3.8264,3.8261,3.826,3.825,3.8248,3.8257,3.8263,3.827,3.8305,3.8301,3.8322,3.8329,3.8335,3.8339,3.8356,3.8364,3.8273,3.8273,3.8272,0,0,3.8299,3.8291,3.83,3.8303,3.83,3.8312,3.8274,3.8289,3.8298,3.8262,3.8282,3.8276,3.8272,3.8301,3.8313,3.8298,3.8364,3.834,3.8345,3.8345,3.836,3.8369,3.8377,3.8275,3.8275,3.8274,0,0,3.8359,3.8355,3.8377,3.8374,3.8369,3.8356,3.8362,3.8351,3.8345,3.8366,3.8339,3.8349,3.8365,3.8362,3.8363,3.8423,3.8401,3.8426,3.8463,3.8479,3.8487,3.8493,3.8512,3.852,3.843,3.843,3.843,0,3.8396,3.8413,3.8391,3.8407,3.8409,3.8377,3.8399,3.8398,3.8396,3.8398,3.8381,3.8398,3.8394,3.8421,3.8435,3.8438,3.8443,3.8426,3.8487,3.8493,3.8499,3.8517,3.8524,3.8433,3.8433,3.8432,3.8432,0,3.8458,3.847,3.8489,3.8487,3.8491,3.8511,3.8491,3.8499,3.8483,3.8472,3.8493,3.8487,3.8491,3.8497,3.8482,3.8522,3.8512,3.8492,3.846,3.8511,3.8527,3.8534,3.8437,3.8436,3.8435,3.8435,0,0,3.8546,3.8532,3.8539,3.8537,3.8529,3.8538,3.8556,3.856,3.8566,3.8567,3.858,3.8594,3.8575,3.8576,3.8561,3.8576,3.8621,3.8553,3.8553,3.8564,3.8662,3.8676,3.8685,3.8608,3.8609,3.861,3.8662,0,3.8601,3.863,3.8611,3.8642,3.8653,3.8623,3.8639,3.8636,3.8627,3.8635,3.8625,3.8634,3.8609,3.8609,3.8623,3.8612,3.864,3.8609,3.8619,3.8619,3.8618,3.8694,3.8708,3.8758,3.8669,3.867,3.8671,0,3.8669,3.8671,3.8703,3.8693,3.8696,3.8711,3.8712,3.872,3.8717,3.8709,3.871,3.8692,3.8708,3.8679,3.8701,3.868,3.8684,3.868,3.8681,3.8679,3.8646,3.8692,3.8773,3.878,3.8681,3.868,3.8679,0,3.8727,3.8738,3.8759,3.8759,3.8747,3.8758,3.8754,3.8748,3.8752,3.8754,3.8755,3.876,3.8762,3.8766,3.8748,3.8729,3.8772,3.8742,3.8765,3.8766,3.8774,3.8773,3.8855,3.878,3.878,3.878,3.878,0,3.8789,3.881,3.8785,3.8797,3.8819,3.8798,3.882,3.8813,3.8809,3.8819,3.8795,3.8806,3.8783,3.8792,3.8779,3.8798,3.88,3.8793,3.8789,3.8794,3.8795,3.8794,3.8789,3.8782,3.8782,3.8781,3.8781,0,3.8857,3.8841,3.8861,3.8849,3.8847,3.8863,3.8853,3.8864,3.8854,3.8867,3.8869,3.8853,3.8861,3.8845,3.8852,3.8843,3.8869,3.8861,3.887,3.8867,3.889,3.8888,3.8973,3.8982,3.8904,3.8905,3.8905,0,3.8896,3.8911,3.8901,3.8906,3.8903,3.8911,3.8914,3.8895,3.8899,3.8896,3.8907,3.8913,3.8917,3.8932,3.892,3.8925,3.8915,3.8945,3.8916,3.892,3.8913,3.8912,3.8912,3.895,3.8951,3.8952,3.8953,0,3.8967,3.8959,3.8964,3.8966,3.8971,3.8972,3.8971,3.8977,3.8956,3.8962,3.897,3.8973,3.8979,3.8985,3.8988,3.8984,3.8964,3.8962,3.8968,3.8971,3.8975,3.8971,3.8884,3.896,3.8959,3.8959,3.8958,3.8958,3.902,3.9032,3.9026,3.9032,3.903,3.903,3.9039,3.903,3.9036,3.9039,3.9027,3.9038,3.9033,3.9034,3.9032,3.904,3.9027,3.9035,3.9037,3.9038,3.9041,3.8976,3.9041,3.9041,3.904,3.904,3.904,0,3.9088,3.9083,3.9089,3.9089,3.9094,3.9076,3.9075,3.908,3.9089,3.9087,3.9091,3.91,3.9106,3.9095,3.91,3.9108,3.9099,3.9109,3.9107,3.9106,3.9054,3.9048,3.9116,3.9116,3.9116,3.9116,3.9116,3.9116,3.9124,3.9142,3.9132,3.9149,3.9144,3.9153,3.9153,3.9153,3.9151,3.9162,3.9166,3.916,3.9154,3.9157,3.9162,3.9159,3.9161,3.9174,3.9167,3.9118,3.911,3.9103,3.9097,3.9175,3.9175,3.9219,3.9219,3.922]}]]